Location: Mission Viejo Division
(33.5624°N, 117.5924°W)
Time: 06:49:58
(UTC+00:00)

Cosmos 304 Rocket - Pass Details

Date: 22 May 2024
Orbit: 674 x 682 km, 74.0° (Epoch: 23 June)

Event Time Altitude Azimuth Distance (km) Brightness Sun altitude
Exits shadow 12:04:33 - 212° (SSW) 2,337 6.0 -8.3°
Reaches altitude 10° 12:05:10 10° 214° (SSW) 2,102 5.7 -8.2°
Maximum altitude 12:09:45 50° 289° (WNW) 857 4.0 -7.3°
Drops below altitude 10° 12:14:23 10° 5° (N) 2,112 6.8 -6.5°
Sets 12:16:45 0° 11° (N) 3,029 7.8 -6.1°
